TimeCDT,TemperatureF,Dew PointF,Humidity,Sea Level PressureIn,VisibilityMPH,Wind Direction,Wind SpeedMPH,Gust SpeedMPH,PrecipitationIn,Events,Conditions,WindDirDegrees,DateUTC
12:33 AM,46.4,44.6,93,29.40,10.0,NW,9.2,-,N/A,,Light Drizzle,320,2012-10-19 05:33:00
12:53 AM,46.4,44.6,93,29.40,10.0,NNW,8.1,-,N/A,Rain,Light Rain,330,2012-10-19 05:53:00
1:13 AM,46.4,44.6,93,29.42,10.0,NNW,8.1,-,N/A,,Drizzle,340,2012-10-19 06:13:00
1:33 AM,46.4,44.6,93,29.42,7.0,NNW,10.4,-,N/A,Rain,Light Rain,340,2012-10-19 06:33:00
1:52 AM,46.4,44.6,93,29.43,7.0,NNW,9.2,-,N/A,Rain,Light Rain,340,2012-10-19 06:52:00
2:13 AM,46.4,44.6,93,29.44,7.0,NNW,9.2,-,N/A,Rain,Light Rain,330,2012-10-19 07:13:00
2:33 AM,46.4,44.6,93,29.45,7.0,NNW,6.9,-,N/A,Rain,Light Rain,340,2012-10-19 07:33:00
2:53 AM,46.4,44.6,93,29.45,10.0,NNW,5.8,-,N/A,Rain,Light Rain,330,2012-10-19 07:53:00
3:13 AM,46.4,44.6,93,29.46,5.0,NW,6.9,-,N/A,Rain,Light Rain,320,2012-10-19 08:13:00
3:32 AM,46.4,44.6,93,29.46,1.0,NW,6.9,-,N/A,,Drizzle,320,2012-10-19 08:32:00
3:53 AM,46.4,46.4,100,29.47,0.8,NNW,5.8,-,N/A,,Overcast,330,2012-10-19 08:53:00
4:13 AM,46.4,46.4,100,29.48,1.0,NNW,5.8,-,N/A,Rain,Light Rain,340,2012-10-19 09:13:00
4:33 AM,48.2,46.4,93,29.49,2.5,NW,5.8,-,N/A,Rain,Rain,320,2012-10-19 09:33:00
4:53 AM,48.2,46.4,93,29.49,7.0,NW,4.6,-,N/A,,Overcast,320,2012-10-19 09:53:00
5:13 AM,46.4,46.4,100,29.50,10.0,WNW,4.6,-,N/A,,Overcast,300,2012-10-19 10:13:00
5:33 AM,48.2,46.4,93,29.51,10.0,WNW,6.9,-,N/A,,Mostly Cloudy,300,2012-10-19 10:33:00
5:53 AM,48.2,46.4,93,29.52,10.0,NW,9.2,-,N/A,,Scattered Clouds,310,2012-10-19 10:53:00
6:13 AM,46.4,44.6,93,29.53,7.0,NW,12.7,-,N/A,Rain,Rain,310,2012-10-19 11:13:00
6:32 AM,46.4,44.6,93,29.54,10.0,NW,15.0,-,N/A,,Scattered Clouds,320,2012-10-19 11:32:00
6:53 AM,44.6,44.6,100,29.55,10.0,NW,12.7,-,N/A,,Mostly Cloudy,320,2012-10-19 11:53:00
7:13 AM,44.6,42.8,93,29.55,10.0,NW,13.8,19.6,N/A,,Light Drizzle,320,2012-10-19 12:13:00
7:32 AM,44.6,42.8,93,29.55,7.0,NW,13.8,-,N/A,,Mostly Cloudy,310,2012-10-19 12:32:00
7:53 AM,44.6,42.8,93,29.55,3.0,WNW,11.5,-,N/A,,Scattered Clouds,300,2012-10-19 12:53:00
8:13 AM,44.6,42.8,93,29.55,5.0,WNW,15.0,-,N/A,,Clear,300,2012-10-19 13:13:00
8:33 AM,44.6,42.8,93,29.56,2.5,WNW,12.7,-,N/A,,Mist,300,2012-10-19 13:33:00
8:53 AM,44.6,42.8,93,29.57,0.8,NW,16.1,-,N/A,,Mist,310,2012-10-19 13:53:00
9:13 AM,44.6,42.8,93,29.57,1.8,NW,19.6,-,N/A,,Mist,310,2012-10-19 14:13:00
9:33 AM,46.4,44.6,93,29.57,1.5,WNW,18.4,24.2,N/A,,Mist,300,2012-10-19 14:33:00
9:53 AM,44.6,42.8,93,29.59,1.5,NW,20.7,28.8,0.01,,Mist,310,2012-10-19 14:53:00
10:12 AM,44.6,42.8,93,29.60,1.0,NW,19.6,-,N/A,,Mist,320,2012-10-19 15:12:00
10:33 AM,44.6,42.8,93,29.60,1.5,NW,20.7,27.6,N/A,,Mist,320,2012-10-19 15:33:00
10:53 AM,44.6,44.6,100,29.61,3.0,NW,20.7,29.9,N/A,,Mist,320,2012-10-19 15:53:00
11:13 AM,46.4,44.6,93,29.61,5.0,NW,18.4,25.3,N/A,,Light Drizzle,320,2012-10-19 16:13:00
11:33 AM,46.4,44.6,93,29.61,10.0,NW,23.0,27.6,N/A,,Light Drizzle,320,2012-10-19 16:33:00
11:53 AM,46.4,44.6,93,29.62,10.0,NW,18.4,25.3,N/A,,Light Drizzle,320,2012-10-19 16:53:00
12:13 PM,46.4,44.6,93,29.62,10.0,NW,20.7,25.3,N/A,,Light Drizzle,320,2012-10-19 17:13:00
12:33 PM,46.4,44.6,93,29.63,10.0,NNW,16.1,25.3,N/A,Rain,Light Rain,330,2012-10-19 17:33:00
12:53 PM,48.2,44.6,87,29.63,10.0,NW,18.4,23.0,N/A,Rain,Light Rain,320,2012-10-19 17:53:00
1:12 PM,48.2,46.4,93,29.63,10.0,NW,18.4,21.9,N/A,Rain,Light Rain,320,2012-10-19 18:12:00
1:33 PM,48.2,46.4,93,29.63,10.0,NW,17.3,23.0,N/A,,Clear,320,2012-10-19 18:33:00
1:53 PM,48.2,46.4,93,29.63,10.0,NW,16.1,20.7,N/A,,Clear,320,2012-10-19 18:53:00
2:13 PM,48.2,46.4,93,29.64,10.0,NW,12.7,17.3,N/A,,Clear,320,2012-10-19 19:13:00
2:33 PM,48.2,46.4,93,29.64,10.0,NW,15.0,-,N/A,,Clear,320,2012-10-19 19:33:00
2:53 PM,48.2,44.6,87,29.64,10.0,NW,15.0,19.6,N/A,,Clear,310,2012-10-19 19:53:00
3:13 PM,48.2,44.6,87,29.65,10.0,NW,17.3,-,N/A,,Clear,310,2012-10-19 20:13:00
3:33 PM,46.4,44.6,93,29.65,10.0,NW,15.0,-,N/A,,Clear,310,2012-10-19 20:33:00
3:53 PM,48.2,44.6,87,29.66,10.0,NW,16.1,-,N/A,,Clear,320,2012-10-19 20:53:00
4:13 PM,48.2,44.6,87,29.66,4.0,NW,16.1,-,N/A,,Clear,310,2012-10-19 21:13:00
4:33 PM,48.2,44.6,87,29.66,2.0,NNW,12.7,-,N/A,,Mist,330,2012-10-19 21:33:00
4:53 PM,48.2,46.4,93,29.67,10.0,NW,11.5,16.1,N/A,,Clear,310,2012-10-19 21:53:00
5:13 PM,48.2,44.6,87,29.68,10.0,NW,13.8,-,N/A,,Scattered Clouds,310,2012-10-19 22:13:00
5:33 PM,46.4,44.6,93,29.69,10.0,NW,18.4,-,N/A,,Scattered Clouds,310,2012-10-19 22:33:00
5:53 PM,46.4,44.6,93,29.69,10.0,WNW,16.1,-,N/A,,Scattered Clouds,300,2012-10-19 22:53:00
6:13 PM,46.4,44.6,93,29.70,10.0,WNW,16.1,-,N/A,,Mostly Cloudy,300,2012-10-19 23:13:00
6:33 PM,46.4,44.6,93,29.71,10.0,WNW,13.8,-,N/A,,Mostly Cloudy,300,2012-10-19 23:33:00
6:53 PM,46.4,42.8,87,29.71,10.0,NW,13.8,-,N/A,,Mostly Cloudy,310,2012-10-19 23:53:00
7:13 PM,46.4,42.8,87,29.72,10.0,NW,15.0,-,N/A,,Mostly Cloudy,310,2012-10-20 00:13:00
7:32 PM,46.4,42.8,87,29.72,10.0,NW,10.4,-,N/A,,Mostly Cloudy,310,2012-10-20 00:32:00
7:53 PM,46.4,42.8,87,29.73,10.0,NW,12.7,-,N/A,,Mostly Cloudy,310,2012-10-20 00:53:00
8:13 PM,44.6,42.8,93,29.73,10.0,NW,8.1,-,N/A,,Overcast,310,2012-10-20 01:13:00
8:33 PM,44.6,42.8,93,29.74,10.0,WNW,6.9,-,N/A,,Mostly Cloudy,300,2012-10-20 01:33:00
8:53 PM,46.4,42.8,87,29.74,10.0,NW,8.1,-,N/A,,Mostly Cloudy,310,2012-10-20 01:53:00
9:13 PM,44.6,42.8,93,29.74,10.0,WNW,9.2,-,N/A,,Overcast,300,2012-10-20 02:13:00
9:32 PM,44.6,42.8,93,29.75,10.0,WNW,11.5,-,N/A,,Overcast,300,2012-10-20 02:32:00
9:53 PM,44.6,42.8,93,29.74,10.0,NW,10.4,-,N/A,,Mostly Cloudy,310,2012-10-20 02:53:00
10:13 PM,44.6,42.8,93,29.74,10.0,NW,4.6,-,N/A,,Mostly Cloudy,320,2012-10-20 03:13:00
10:32 PM,44.6,42.8,93,29.75,10.0,WNW,8.1,-,N/A,,Mostly Cloudy,290,2012-10-20 03:32:00
10:53 PM,44.6,42.8,93,29.75,10.0,WNW,9.2,-,N/A,,Overcast,290,2012-10-20 03:53:00
11:13 PM,44.6,42.8,93,29.75,10.0,NW,9.2,-,N/A,,Mostly Cloudy,310,2012-10-20 04:13:00
11:32 PM,44.6,42.8,93,29.75,10.0,NNW,6.9,-,N/A,,Mostly Cloudy,330,2012-10-20 04:32:00
11:53 PM,44.6,42.8,93,29.75,10.0,NW,3.5,-,N/A,,Mostly Cloudy,320,2012-10-20 04:53:00